This demonstration page uses our WeatherBlox Daily Observations layout. Learn more.

Left ArrowRight Arrow

39.01783, -85.05884

Hourly Observations for August 14, 2022

Temp ( °F °C ) Dew Point ( °F °C ) Humidity (%) Winds ( mph kmh ) Pressure ( in mb ) Visibility ( mi km ) Precip ( " mm )
12:52 am 00:52 Mostly Cloudy 69 20.6 59 15 70 70 SE 8 13 30.02 1017 10 16 0.00 0.00
1:52 am 01:52 Clear 68 20 58 14.4 70 70 S 6 9 30.01 1016 10 16 0.00 0.00
2:52 am 02:52 Mostly Clear 67 19.4 59 15 76 76 S 6 9 29.99 1016 10 16 0.00 0.00
3:52 am 03:52 Partly Cloudy 68 20 59 15 73 73 S 5 7 29.97 1015 10 16 0.00 0.00
4:52 am 04:52 Mostly Cloudy 67 19.4 60 15.6 79 79 S 3 6 29.97 1015 10 16 0.00 0.00
5:52 am 05:52 Cloudy 66 18.9 61 16.1 84 84 SSE 7 11 29.95 1014 10 16 0.00 0.00
6:52 am 06:52 Cloudy 66 18.9 62 16.7 87 87 S 6 9 29.96 1015 10 16 0.00 0.00
7:52 am 07:52 Cloudy 67 19.4 62 16.7 84 84 SSE 7 11 29.94 1014 10 16 0.00 0.00
8:52 am 08:52 Cloudy with Light Rain 68 20 62 16.7 81 81 NW 5 7 30.00 1016 3 5 0.01 0.25
9:15 am 09:15 Mostly Cloudy with Rain 68 20 62 16.7 81 81 Calm 29.99 1015 2 3 0.02 0.51
9:21 am 09:21 Mostly Cloudy with Light Rain 68 20 62 16.7 81 81 Calm 29.98 1015 3 5 0.03 0.76
9:52 am 09:52 Cloudy with Light Rain 67 19.4 64 17.8 90 90 SE 5 7 29.97 1015 10 16 0.03 0.76
10:52 am 10:52 Cloudy with Light Rain 68 20 65 18.3 90 90 S 8 13 29.96 1015 6 10 0.01 0.25
11:52 am 11:52 Cloudy 71 21.7 64 17.8 79 79 S 6 9 29.94 1014 10 16 0.01 0.13
12:52 pm 12:52 Mostly Cloudy 74 23.3 66 18.9 76 76 SSW 8 13 29.92 1013 10 16 0.00 0.00
1:52 pm 13:52 Cloudy 75 23.9 66 18.9 74 74 S 9 15 29.91 1013 10 16 0.00 0.00
2:03 pm 14:03 Cloudy with Nearby Thunderstorms 75 23.9 66 18.9 74 74 VRB 6 9 29.89 1012 10 16 0.00 0.00
2:25 pm 14:25 Cloudy 75 23.9 66 18.9 74 74 SSW 9 15 29.89 1012 10 16 0.00 0.00
2:52 pm 14:52 Cloudy 75 23.9 67 19.4 76 76 S 8 13 29.90 1012 10 16 0.00 0.00
3:52 pm 15:52 Cloudy 77 25 65 18.3 66 66 S 10 17 29.87 1011 10 16 0.00 0.00
4:52 pm 16:52 Cloudy 76 24.4 65 18.3 69 69 SW 6 9 29.87 1012 10 16 0.00 0.00
5:52 pm 17:52 Cloudy with Light Rain 75 23.9 67 19.4 76 76 Calm 29.88 1012 10 16 0.01 0.13
6:52 pm 18:52 Cloudy 75 23.9 72 22.2 90 90 S 5 7 29.87 1011 10 16 0.01 0.13
7:52 pm 19:52 Cloudy 75 23.9 68 20 79 79 VRB 3 6 29.87 1012 10 16 0.00 0.00
8:23 pm 20:23 Cloudy 75 23.9 67 19.4 76 76 E 12 19 29.87 1011 10 16 0.00 0.00
8:52 pm 20:52 Cloudy 73 22.8 67 19.4 81 81 E 8 13 29.88 1012 10 16 0.00 0.00
9:52 pm 21:52 Cloudy 72 22.2 70 21.1 93 93 E 8 13 29.88 1012 10 16 0.00 0.00
10:14 pm 22:14 Cloudy 72 22.2 70 21.1 93 93 E 7 11 29.88 1012 10 16 0.00 0.00
10:52 pm 22:52 Cloudy 72 22.2 70 21.1 93 93 E 7 11 29.89 1012 10 16 0.00 0.00
11:52 pm 23:52 Cloudy 72 22.2 70 21.1 93 93 E 9 15 29.89 1012 10 16 0.00 0.00

Powered by AerisWeather